1494194401.08,63683,15.81,72872.0,-2.33,-3.63,-3.63,0,*5A
1494194402.35,63684,15.81,72870.3,-2.33,-3.71,-3.71,0,*5D
1494194403.58,63685,15.81,72868.5,-2.33,-3.75,-3.75,0,*5C
1494194404.81,63686,15.81,72870.8,-2.35,-3.75,-3.71,0,*5D
1494194406.01,63687,15.81,72874.0,-2.35,-3.75,-3.83,0,*51
1494194407.25,63688,15.81,72870.3,-2.33,-3.75,-3.83,0,*58
1494194408.48,63689,15.81,72870.5,-2.33,-3.75,-3.83,0,*59
1494194409.67,63690,15.81,72870.8,-2.35,-3.23,-3.23,0,*5E
1494194410.92,63691,15.81,72874.3,-2.35,-3.63,-3.59,0,*56
1494194412.15,63692,15.81,72874.3,-2.33,-3.83,-3.83,0,*5A
1494194413.39,63693,15.81,72874.3,-2.33,-3.39,-3.51,0,*55
1494194414.63,63694,15.81,72870.3,-2.33,-3.83,-3.75,0,*55
1494194415.86,63695,15.81,72870.3,-2.33,-3.83,-3.83,0,*5D
1494194417.09,63696,15.81,72874.3,-2.33,-3.75,-3.83,0,*57
1494194418.3,63697,15.81,72870.8,-2.35,-3.83,-3.83,0,*59
1494194419.53,63698,15.81,72872.3,-2.33,-3.83,-3.83,0,*50
1494194420.75,63699,15.81,72868.0,-2.33,-3.87,-3.87,0,*51
1494194421.95,63700,15.81,72866.5,-2.35,-3.87,-3.87,0,*56
1494194423.15,63701,15.81,72870.8,-2.35,-3.87,-3.87,0,*57
1494194424.35,63702,15.81,72864.3,-2.35,-3.87,-3.87,0,*54
1494194425.55,63703,15.81,72868.3,-2.35,-3.95,-3.95,0,*55
1494194426.81,63704,15.81,72864.8,-2.37,-4.01,-4.05,0,*54
1494194428.06,63705,15.81,72866.5,-2.35,-4.01,-4.01,0,*53
1494194429.29,63706,15.81,72870.0,-2.37,-4.05,-3.91,0,*58
1494194430.53,63707,15.81,72864.0,-2.37,-3.91,-3.91,0,*53
1494194431.75,63708,15.81,72866.3,-2.37,-3.87,-3.87,0,*5C
1494194432.98,63709,15.81,72868.3,-2.37,-3.87,-3.87,0,*5D
1494194434.22,63710,15.81,72866.8,-2.37,-3.91,-3.91,0,*55
1494194435.45,63711,15.81,72868.3,-2.37,-3.87,-3.91,0,*53
1494194436.68,63712,15.81,72870.5,-2.37,-3.83,-3.83,0,*57
1494194437.9,63713,15.81,72866.5,-2.37,-3.87,-3.87,0,*56
1494194439.13,63714,15.81,72866.8,-2.37,-3.87,-3.87,0,*51
1494194440.36,63715,15.81,72868.3,-2.37,-3.87,-3.87,0,*50
1494194441.56,63716,15.81,72868.5,-2.35,-3.87,-3.79,0,*50
1494194442.78,63717,15.81,72868.5,-2.37,-3.87,-3.87,0,*52
1494194444.04,63718,15.81,72870.3,-2.37,-4.01,-3.87,0,*54
1494194445.26,63719,15.81,72866.5,-2.37,-3.87,-3.87,0,*5C
1494194446.5,63720,15.81,72868.0,-2.37,-3.75,-3.79,0,*5A
1494194447.72,63721,15.81,72864.0,-2.37,-3.87,-3.87,0,*57
1494194448.98,63722,15.81,72866.5,-2.37,-3.91,-4.01,0,*5A
1494194450.22,63723,15.81,72868.3,-2.37,-3.91,-3.91,0,*55
1494194451.46,63724,15.81,72866.8,-2.37,-3.75,-3.75,0,*52
1494194452.68,63725,15.81,72864.8,-2.37,-4.05,-4.09,0,*5F
1494194453.91,63726,15.81,72866.8,-2.37,-4.17,-4.09,0,*5F
1494194455.11,63727,15.81,72864.0,-2.39,-3.95,-3.95,0,*5F
1494194456.32,63728,15.81,72866.5,-2.39,-3.83,-3.83,0,*50
1494194457.53,63729,15.81,72866.3,-2.39,-3.83,-3.83,0,*51
1494194458.76,63730,15.81,72866.0,-2.41,-3.83,-3.91,0,*55
1494194459.98,63731,15.81,72870.0,-2.39,-3.91,-3.91,0,*58
1494194461.21,63732,15.81,72868.8,-2.41,-3.91,-3.91,0,*54
1494194462.42,63733,15.81,72868.5,-2.39,-3.91,-3.91,0,*5A
1494194463.64,63734,15.81,72870.8,-2.39,-3.91,-3.91,0,*5D
1494194464.85,63735,15.81,72870.0,-2.39,-3.91,-3.83,0,*5F
1494194466.06,63736,15.81,72864.3,-2.39,-3.83,-3.83,0,*5F
1494194467.26,63737,15.81,72868.5,-2.39,-3.95,-3.91,0,*5A
1494194468.5,63738,15.81,72868.5,-2.41,-3.83,-3.91,0,*5D
1494194469.73,63739,15.81,72870.8,-2.41,-3.83,-3.79,0,*5A
1494194470.96,63740,15.81,72870.3,-2.39,-3.79,-3.71,0,*56
1494194472.22,63741,15.81,72868.5,-2.41,-3.71,-3.71,0,*50
1494194473.45,63742,15.81,72868.5,-2.39,-3.79,-3.71,0,*54
1494194474.69,63743,15.81,72868.5,-2.37,-3.75,-3.75,0,*53
1494194475.94,63744,15.81,72866.8,-2.37,-3.75,-3.67,0,*57
1494194477.21,63745,15.81,72870.0,-2.37,-3.55,-3.63,0,*50
1494194478.42,63746,15.81,72870.3,-2.39,-3.91,-3.83,0,*5B
1494194479.65,63747,15.81,72868.5,-2.41,-3.91,-3.91,0,*56
1494194480.86,63748,15.81,72868.5,-2.39,-3.91,-3.95,0,*52
1494194482.07,63749,15.81,72868.3,-2.39,-3.91,-3.91,0,*57
1494194483.29,63750,15.81,72866.3,-2.39,-3.91,-3.91,0,*5F
1494194484.5,63751,15.81,72866.0,-2.39,-3.91,-3.91,0,*5E
1494194485.73,63752,15.81,72864.5,-2.41,-3.91,-3.91,0,*52
1494194486.95,63753,15.81,72864.3,-2.39,-3.91,-3.91,0,*5C
1494194488.18,63754,15.81,72864.8,-2.41,-3.79,-3.83,0,*51
1494194489.38,63755,15.81,72864.8,-2.39,-3.83,-3.83,0,*5A
1494194490.63,63756,15.81,72864.8,-2.41,-3.79,-3.71,0,*5E
1494194491.84,63757,15.81,72866.8,-2.39,-3.79,-3.79,0,*58
1494194493.11,63758,15.81,72868.5,-2.41,-3.71,-3.59,0,*52
1494194494.36,63759,15.81,72866.3,-2.39,-3.67,-3.67,0,*56
1494194495.63,63760,15.81,72866.8,-2.37,-3.43,-3.51,0,*51
1494194496.87,63761,15.81,72870.8,-2.37,-3.79,-3.79,0,*53
1494194498.09,63762,15.81,72870.0,-2.39,-3.71,-3.79,0,*56
1494194499.36,63763,15.81,72870.8,-2.41,-3.67,-3.59,0,*5D
1494194500.6,63764,15.81,72866.3,-2.41,-3.79,-3.79,0,*57
1494194501.84,63765,15.81,72868.0,-2.39,-3.71,-3.71,0,*59
1494194503.09,63766,15.81,72870.0,-2.39,-3.59,-3.47,0,*55
1494194504.32,63767,15.81,72868.3,-2.39,-3.71,-3.79,0,*53
1494194505.53,63768,15.81,72864.3,-2.39,-3.79,-3.79,0,*54
1494194506.74,63769,15.81,72868.3,-2.39,-3.79,-3.79,0,*55
1494194507.95,63770,15.81,72868.8,-2.39,-3.83,-3.79,0,*58
1494194509.16,63771,15.81,72868.3,-2.39,-3.91,-3.83,0,*5F
1494194510.38,63772,15.81,72868.5,-2.39,-3.91,-3.91,0,*5F
1494194511.59,63773,15.81,72868.0,-2.39,-3.83,-3.79,0,*5B
1494194512.83,63774,15.81,72868.0,-2.39,-3.71,-3.71,0,*59
1494194514.08,63775,15.81,72870.5,-2.39,-3.71,-3.67,0,*5F
1494194515.32,63776,15.81,72868.3,-2.39,-3.67,-3.71,0,*5C
1494194516.56,63777,15.81,72870.3,-2.39,-3.71,-3.71,0,*5A
1494194517.81,63778,15.81,72866.0,-2.39,-3.67,-3.67,0,*55
1494194519.08,63779,15.81,72866.0,-2.37,-3.55,-3.43,0,*5D
1494194520.35,63780,15.81,72866.0,-2.37,-3.63,-3.63,0,*5C
1494194521.6,63781,15.81,72866.5,-2.39,-3.47,-3.47,0,*53
1494194522.85,63782,15.81,72868.0,-2.39,-3.55,-3.59,0,*5C
1494194524.09,63783,15.81,72860.0,-2.39,-3.71,-3.71,0,*51
1494194525.31,63784,15.81,72862.5,-2.39,-3.79,-3.79,0,*56
1494194526.51,63785,15.81,72860.3,-2.39,-3.83,-3.83,0,*57
1494194527.73,63786,15.81,72858.0,-2.39,-3.83,-3.91,0,*57
1494194528.94,63787,15.81,72862.8,-2.39,-3.91,-3.95,0,*51
1494194530.15,63788,15.81,72862.3,-2.39,-3.95,-3.91,0,*5E
1494194531.38,63789,15.75,72856.8,-2.41,-3.95,-3.91,0,*50
1494194532.6,63790,15.81,72864.3,-2.41,-4.09,-4.09,0,*5C
1494194533.81,63791,15.81,72860.3,-2.39,-4.21,-4.21,0,*52
1494194535.04,63792,15.81,72864.3,-2.41,-4.09,-4.09,0,*5E
1494194536.26,63793,15.81,72866.0,-2.41,-3.95,-4.09,0,*5D
1494194537.49,63794,15.81,72862.5,-2.41,-3.95,-3.95,0,*58
1494194538.7,63795,15.81,72862.0,-2.39,-3.83,-3.83,0,*56
1494194539.91,63796,15.81,72864.3,-2.39,-3.83,-3.83,0,*55
1494194541.17,63797,15.81,72862.3,-2.41,-3.71,-3.71,0,*5B
1494194542.42,63798,15.81,72864.8,-2.41,-3.71,-3.83,0,*59
1494194543.63,63799,15.81,72864.0,-2.39,-3.79,-3.79,0,*5A
1494194544.86,63800,15.81,72866.5,-2.41,-3.79,-3.79,0,*5A
1494194546.09,63801,15.81,72866.3,-2.41,-3.91,-3.91,0,*5B
1494194547.32,63802,15.81,72866.5,-2.41,-3.91,-3.95,0,*5C
1494194548.55,63803,15.81,72864.8,-2.41,-3.83,-3.83,0,*59
1494194549.77,63804,15.81,72866.0,-2.39,-3.91,-3.79,0,*57
1494194551.03,63805,15.81,72864.5,-2.41,-3.67,-3.67,0,*5F
1494194552.28,63806,15.81,72866.5,-2.39,-3.67,-3.71,0,*54
1494194553.49,63807,15.81,72866.0,-2.39,-3.79,-3.79,0,*52
1494194554.75,63808,15.81,72868.0,-2.41,-3.71,-3.71,0,*52
1494194556.0,63809,15.81,72866.0,-2.39,-3.71,-3.71,0,*5C
1494194557.22,63810,15.81,72864.3,-2.39,-3.79,-3.71,0,*5C
1494194558.46,63811,15.81,72866.0,-2.41,-3.79,-3.79,0,*5A
1494194559.69,63812,15.81,72866.8,-2.41,-3.91,-3.79,0,*5F
1494194560.92,63813,15.81,72864.3,-2.41,-3.83,-3.83,0,*58
1494194562.15,63814,15.81,72864.3,-2.41,-3.91,-3.91,0,*5F
1494194563.36,63815,15.81,72866.5,-2.39,-3.83,-3.83,0,*51
1494194564.59,63816,15.81,72864.0,-2.41,-3.83,-3.83,0,*5D
1494194565.82,63817,15.75,72860.5,-2.41,-3.91,-3.83,0,*5F
1494194567.05,63818,15.81,72864.3,-2.41,-3.91,-3.83,0,*50
1494194568.28,63819,15.81,72864.0,-2.41,-3.83,-3.83,0,*52
1494194569.52,63820,15.81,72866.5,-2.39,-3.71,-3.71,0,*57
1494194570.8,63821,15.81,72864.5,-2.41,-3.59,-3.59,0,*59
1494194572.04,63822,15.81,72858.8,-2.39,-3.67,-3.67,0,*55
1494194573.29,63823,15.81,72862.5,-2.41,-3.71,-3.79,0,*53
1494194574.52,63824,15.81,72864.8,-2.41,-3.91,-3.91,0,*5C
1494194575.75,63825,15.81,72864.3,-2.39,-3.79,-3.55,0,*5C
1494194576.96,63826,15.81,72860.0,-2.39,-3.91,-3.83,0,*52
1494194578.19,63827,15.81,72864.0,-2.41,-3.83,-3.95,0,*58
1494194579.42,63828,15.81,72860.8,-2.41,-3.91,-3.91,0,*50
1494194580.64,63829,15.81,72860.0,-2.39,-3.91,-3.91,0,*5E
1494194581.9,63830,15.81,72864.3,-2.41,-3.71,-3.71,0,*59
1494194583.11,63831,15.81,72864.0,-2.39,-3.91,-3.91,0,*57
1494194584.32,63832,15.81,72862.8,-2.39,-3.95,-3.95,0,*54
1494194585.55,63833,15.81,72864.0,-2.41,-3.95,-3.95,0,*5A
1494194586.77,63834,15.81,72862.8,-2.41,-3.95,-3.95,0,*5D
1494194588.0,63835,15.81,72860.8,-2.41,-3.91,-3.83,0,*5F
1494194589.23,63836,15.81,72860.8,-2.41,-3.83,-3.83,0,*5F
1494194590.46,63837,15.81,72864.3,-2.39,-3.71,-3.79,0,*59
1494194591.69,63838,15.81,72866.0,-2.41,-3.91,-3.91,0,*51
1494194592.91,63839,15.81,72864.8,-2.41,-4.05,-4.05,0,*50
1494194594.14,63840,15.81,72862.5,-2.41,-4.09,-4.05,0,*52
1494194595.39,63841,15.81,72864.8,-2.41,-3.79,-3.71,0,*57
1494194596.6,63842,15.81,72864.8,-2.39,-3.91,-3.91,0,*53
1494194597.81,63843,15.81,72862.5,-2.39,-3.95,-3.95,0,*52
1494194599.01,63844,15.81,72862.3,-2.39,-3.95,-3.95,0,*55
1494194600.24,63845,15.81,72860.5,-2.41,-3.83,-3.79,0,*5E
1494194601.47,63846,15.81,72866.3,-2.41,-3.83,-3.83,0,*58
1494194602.71,63847,15.81,72864.3,-2.41,-3.91,-3.91,0,*59
1494194603.94,63848,15.81,72862.5,-2.41,-3.91,-3.95,0,*52
1494194605.16,63849,15.81,72860.5,-2.41,-4.09,-4.09,0,*57
1494194606.38,63850,15.81,72860.8,-2.41,-4.09,-4.09,0,*5F
1494194607.61,63851,15.81,72866.0,-2.41,-3.95,-4.05,0,*50
1494194608.84,63852,15.81,72862.8,-2.41,-3.91,-3.95,0,*59
1494194610.06,63853,15.81,72862.0,-2.41,-3.95,-3.95,0,*5C
1494194611.29,63854,15.81,72860.5,-2.41,-3.95,-3.95,0,*5B
1494194612.52,63855,15.81,72860.0,-2.41,-3.91,-3.83,0,*59
1494194613.76,63856,15.81,72862.0,-2.41,-3.91,-3.91,0,*59
1494194614.99,63857,15.81,72862.5,-2.41,-3.91,-3.91,0,*58
1494194616.21,63858,15.81,72862.3,-2.41,-4.09,-4.05,0,*5B
1494194617.44,63859,15.81,72862.5,-2.41,-3.95,-3.95,0,*56
1494194618.66,63860,15.81,72864.8,-2.41,-3.95,-3.95,0,*5C
1494194619.89,63861,15.75,72856.8,-2.41,-3.95,-3.95,0,*5D
1494194621.12,63862,15.81,72862.5,-2.41,-3.95,-3.95,0,*5E
1494194622.35,63863,15.81,72860.8,-2.41,-3.83,-3.91,0,*5C
1494194623.58,63864,15.81,72862.0,-2.41,-3.95,-4.05,0,*56
1494194624.83,63865,15.81,72862.8,-2.43,-4.01,-4.01,0,*5B
1494194626.04,63866,15.81,72862.5,-2.43,-3.95,-3.95,0,*58
1494194627.27,63867,15.81,72860.8,-2.43,-4.01,-4.09,0,*51
1494194628.49,63868,15.81,72860.0,-2.43,-4.09,-4.01,0,*5E
1494194629.69,63869,15.81,72860.3,-2.43,-4.09,-4.09,0,*57
1494194630.95,63870,15.81,72860.3,-2.43,-4.01,-4.01,0,*5F
1494194632.14,63871,15.81,72860.0,-2.43,-4.09,-4.09,0,*5E
1494194633.35,63872,15.81,72858.5,-2.43,-4.13,-4.13,0,*5D
1494194634.54,63873,15.81,72856.8,-2.45,-4.13,-4.13,0,*5A
1494194635.74,63874,15.81,72858.0,-2.43,-4.09,-4.17,0,*54
1494194636.97,63875,15.81,72862.0,-2.43,-4.01,-4.09,0,*52
1494194638.22,63876,15.81,72860.0,-2.43,-4.01,-4.01,0,*59
1494194639.47,63877,15.81,72856.0,-2.45,-4.01,-4.01,0,*5E
1494194640.7,63878,15.81,72856.5,-2.45,-4.09,-4.01,0,*59
1494194641.92,63879,15.81,72858.8,-2.43,-4.09,-4.01,0,*5E
1494194643.17,63880,15.75,72854.0,-2.45,-4.01,-4.01,0,*56
1494194644.42,63881,15.81,72858.0,-2.45,-4.01,-4.01,0,*57
1494194645.65,63882,15.81,72856.3,-2.45,-4.01,-4.09,0,*5C
1494194646.84,63883,15.81,72856.8,-2.45,-4.09,-4.09,0,*55
1494194648.09,63884,15.81,72854.8,-2.45,-4.01,-4.01,0,*52
1494194649.32,63885,15.81,72856.5,-2.45,-4.01,-4.09,0,*5B
1494194650.51,63886,15.81,72856.8,-2.45,-4.09,-4.09,0,*50
1494194651.71,63887,15.81,72854.8,-2.43,-4.09,-4.09,0,*57
1494194652.97,63888,15.81,72854.8,-2.43,-4.01,-4.01,0,*58
1494194654.19,63889,15.81,72854.0,-2.45,-4.01,-4.09,0,*57
1494194655.45,63890,15.81,72854.3,-2.45,-4.01,-4.01,0,*57
1494194656.64,63891,15.75,72852.5,-2.45,-4.09,-4.09,0,*56
1494194657.83,63892,15.81,72854.0,-2.45,-4.09,-4.09,0,*55
1494194659.03,63893,15.81,72854.5,-2.45,-4.13,-4.09,0,*5F
1494194660.22,63894,15.81,72856.3,-2.45,-4.09,-4.09,0,*53
1494194661.47,63895,15.81,72854.8,-2.45,-4.01,-4.01,0,*52
1494194662.67,63896,15.81,72856.8,-2.45,-3.95,-3.95,0,*51
1494194663.87,63897,15.81,72856.0,-2.45,-4.09,-4.09,0,*50
1494194665.12,63898,15.81,72858.0,-2.45,-4.01,-4.01,0,*5F
1494194666.34,63899,15.81,72852.5,-2.51,-4.13,-4.05,0,*5C
1494194667.53,63900,15.81,72852.5,-2.49,-4.13,-4.05,0,*54
1494194668.75,63901,15.81,72856.3,-2.45,-4.01,-4.09,0,*56
1494194669.95,63902,15.81,72856.0,-2.49,-4.13,-4.13,0,*51
1494194671.15,63903,15.81,72854.5,-2.49,-4.21,-4.21,0,*50
1494194672.36,63904,15.81,72856.3,-2.49,-4.21,-4.21,0,*57
1494194673.56,63905,15.81,72854.8,-2.49,-4.21,-4.13,0,*57
1494194674.78,63906,15.75,72848.0,-2.51,-4.05,-4.05,0,*5C
1494194676.03,63907,15.81,72854.8,-2.45,-4.01,-4.01,0,*58
1494194677.22,63908,15.81,72858.0,-2.49,-4.05,-4.13,0,*5C
1494194678.45,63909,15.81,72856.8,-2.51,-4.21,-4.21,0,*53
1494194679.64,63910,15.81,72858.3,-2.49,-4.13,-4.17,0,*56
1494194680.84,63911,15.75,72850.0,-2.49,-4.13,-4.13,0,*53
1494194682.06,63912,15.81,72858.0,-2.51,-4.21,-4.17,0,*5C
1494194683.27,63913,15.81,72852.0,-2.51,-4.17,-4.17,0,*58
1494194684.46,63914,15.75,72848.5,-2.49,-4.05,-4.05,0,*56
1494194685.68,63915,15.81,72854.3,-2.51,-4.05,-4.05,0,*5E
1494194686.9,63916,15.81,72854.0,-2.51,-4.13,-4.05,0,*5A
1494194688.12,63917,15.75,72852.0,-2.51,-4.05,-4.05,0,*5C
1494194689.34,63918,15.81,72852.0,-2.51,-4.05,-4.05,0,*53
1494194690.56,63919,15.81,72854.0,-2.51,-4.13,-4.13,0,*52
1494194691.78,63920,15.81,72858.0,-2.51,-4.05,-4.05,0,*58
1494194692.99,63921,15.81,72854.3,-2.51,-4.05,-4.05,0,*59
1494194694.24,63922,15.81,72858.3,-2.51,-4.01,-4.05,0,*5E
1494194695.49,63923,15.81,72852.5,-2.49,-4.01,-4.01,0,*52
1494194696.71,63924,15.75,72854.3,-2.51,-4.13,-4.05,0,*5B
1494194697.93,63925,15.81,72856.0,-2.51,-4.13,-4.13,0,*5D
1494194699.15,63926,15.81,72854.8,-2.51,-4.05,-4.05,0,*5E
1494194700.37,63927,15.81,72852.5,-2.51,-4.13,-4.05,0,*58
1494194701.59,63928,15.75,72852.0,-2.51,-4.05,-4.05,0,*50
1494194702.81,63929,15.75,72852.8,-2.51,-4.13,-4.13,0,*51
1494194704.0,63930,15.81,72856.8,-2.49,-4.05,-4.05,0,*50
1494194705.22,63931,15.81,72854.3,-2.51,-4.05,-4.05,0,*58
1494194706.46,63932,15.81,72854.0,-2.51,-4.05,-4.01,0,*5F
1494194707.68,63933,15.75,72852.3,-2.51,-4.05,-4.13,0,*5D
1494194708.9,63934,15.81,72854.5,-2.51,-4.13,-4.05,0,*5A
1494194710.09,63935,15.81,72856.0,-2.49,-4.05,-4.05,0,*55
1494194711.31,63936,15.81,72854.0,-2.51,-4.05,-4.05,0,*5F
1494194712.53,63937,15.75,72850.8,-2.51,-4.05,-4.05,0,*5E
1494194713.75,63938,15.81,72852.0,-2.51,-4.13,-4.13,0,*51
1494194714.97,63939,15.81,72852.0,-2.51,-4.05,-3.91,0,*5A
1494194716.22,63940,15.81,72854.5,-2.51,-3.91,-4.01,0,*50
1494194717.5,63941,15.81,72856.8,-2.51,-4.01,-4.01,0,*5F
1494194718.75,63942,15.81,72856.8,-2.51,-4.01,-3.91,0,*52
1494194720.02,63943,15.75,72854.0,-2.51,-4.01,-4.01,0,*5D
1494194721.22,63944,15.75,72854.5,-2.53,-4.09,-4.09,0,*58
1494194722.41,63945,15.75,72852.5,-2.53,-4.09,-4.09,0,*59
1494194723.61,63946,15.81,72854.3,-2.53,-4.09,-4.09,0,*5A
1494194724.8,63947,15.81,72856.0,-2.53,-4.09,-4.05,0,*57
1494194726.0,63948,15.75,72854.5,-2.53,-4.09,-4.05,0,*58
1494194727.19,63949,15.81,72856.0,-2.53,-4.09,-4.05,0,*59
1494194728.39,63950,15.81,72852.3,-2.49,-4.05,-4.05,0,*56
1494194729.59,63951,15.75,72854.0,-2.53,-3.95,-4.09,0,*5E
1494194730.78,63952,15.75,72850.8,-2.53,-4.05,-4.09,0,*53
1494194732.0,63953,15.81,72858.3,-2.51,-4.05,-4.05,0,*5C
1494194733.22,63954,15.81,72856.0,-2.51,-4.05,-4.05,0,*5B
1494194734.41,63955,15.81,72862.8,-2.53,-4.17,-4.09,0,*57
1494194735.61,63956,15.81,72856.3,-2.53,-4.09,-4.09,0,*5B
1494194736.8,63957,15.81,72858.0,-2.53,-4.09,-4.09,0,*5A
1494194738.0,63958,15.81,72860.3,-2.53,-4.09,-4.09,0,*55
1494194739.24,63959,15.81,72856.5,-2.51,-4.05,-4.01,0,*52
1494194740.49,63960,15.81,72858.5,-2.51,-3.91,-4.01,0,*52
1494194741.72,63961,15.81,72856.5,-2.51,-3.91,-3.91,0,*5D
1494194743.0,63962,15.81,72858.5,-2.51,-4.01,-4.01,0,*5E
1494194744.19,63963,15.81,72858.8,-2.53,-4.05,-4.05,0,*5D
1494194745.39,63964,15.75,72854.5,-2.53,-4.05,-4.05,0,*5A
1494194746.58,63965,15.81,72862.3,-2.53,-4.05,-4.05,0,*5B
1494194747.78,63966,15.81,72858.5,-2.53,-4.05,-4.05,0,*58
1494194748.97,63967,15.81,72862.3,-2.53,-4.05,-4.05,0,*59
1494194750.25,63968,15.81,72860.0,-2.51,-4.01,-4.01,0,*54
1494194751.52,63969,15.81,72860.8,-2.51,-4.01,-4.01,0,*55
1494194752.74,63970,15.81,72856.5,-2.53,-4.05,-4.01,0,*5B
1494194753.94,63971,15.81,72858.0,-2.53,-4.05,-4.05,0,*5E
1494194755.14,63972,15.75,72856.0,-2.53,-3.95,-3.91,0,*59
1494194756.37,63973,15.75,72856.0,-2.55,-3.95,-3.91,0,*5E
1494194757.57,63974,15.75,72856.0,-2.53,-3.95,-3.95,0,*5B
1494194758.78,63975,15.81,72858.3,-2.53,-3.83,-3.91,0,*59
1494194759.98,63976,15.75,72858.0,-2.53,-3.91,-3.95,0,*5D
1494194761.25,63977,15.75,72858.3,-2.51,-4.01,-4.01,0,*5A
1494194762.45,63978,15.75,72856.0,-2.53,-3.95,-3.95,0,*57
1494194763.68,63979,15.75,72854.8,-2.55,-3.83,-3.91,0,*53
1494194764.89,63980,15.75,72858.0,-2.53,-3.91,-3.83,0,*53
1494194766.09,63981,15.75,72858.8,-2.53,-3.79,-3.91,0,*57
1494194767.29,63982,15.81,72860.0,-2.53,-3.83,-3.83,0,*52
1494194768.52,63983,15.75,72856.3,-2.55,-3.83,-3.83,0,*55
1494194769.74,63984,15.75,72858.8,-2.53,-3.79,-3.71,0,*5C
1494194770.95,63985,15.81,72862.3,-2.53,-3.79,-3.79,0,*55
1494194772.15,63986,15.81,72858.8,-2.53,-3.79,-3.79,0,*56
1494194773.38,63987,15.81,72856.5,-2.51,-3.79,-3.75,0,*59
1494194774.61,63988,15.81,72860.3,-2.51,-3.75,-3.75,0,*5A
1494194775.83,63989,15.81,72860.5,-2.49,-3.75,-3.67,0,*51
1494194777.05,63990,15.75,72858.0,-2.51,-3.79,-3.79,0,*53
1494194778.3,63991,15.75,72856.8,-2.51,-3.75,-3.67,0,*51
1494194779.52,63992,15.81,72860.0,-2.51,-3.87,-3.87,0,*51
1494194780.74,63993,15.81,72860.0,-2.51,-3.87,-3.91,0,*57
1494194781.97,63994,15.75,72858.8,-2.51,-3.91,-3.91,0,*57
1494194783.17,63995,15.81,72856.5,-2.49,-3.91,-3.91,0,*5F
1494194784.4,63996,15.81,72858.8,-2.51,-3.91,-3.87,0,*52
1494194785.62,63997,15.81,72860.8,-2.51,-3.79,-3.87,0,*55
1494194786.85,63998,15.81,72856.5,-2.51,-3.79,-3.75,0,*57
1494194788.07,63999,15.75,72858.3,-2.51,-3.87,-3.79,0,*5B
1494194789.3,64000,15.75,72854.8,-2.51,-3.91,-3.91,0,*54
1494194790.49,64001,15.75,72858.8,-2.49,-3.87,-3.87,0,*5C
1494194791.72,64002,15.75,72856.0,-2.51,-3.75,-3.79,0,*5A
1494194792.95,64003,15.75,72858.3,-2.51,-3.79,-3.75,0,*5B
1494194794.2,64004,15.81,72858.3,-2.51,-3.67,-3.75,0,*53
1494194795.43,64005,15.75,72858.3,-2.49,-3.67,-3.67,0,*58
1494194796.63,64006,15.81,72862.0,-2.49,-3.75,-3.75,0,*5B
1494194797.89,64007,15.81,72858.8,-2.51,-3.67,-3.67,0,*53
1494194799.13,64008,15.75,72858.5,-2.49,-3.67,-3.67,0,*55
1494194800.36,64009,15.75,72858.3,-2.49,-3.67,-3.63,0,*50
1494194801.55,64010,15.81,72858.5,-2.49,-3.23,-3.31,0,*5F
1494194802.73,64011,15.81,72862.3,-2.49,-3.15,-3.23,0,*58
1494194803.97,64012,15.81,72860.0,-2.49,-3.51,-3.51,0,*5E
1494194805.19,64013,15.81,72858.8,-2.45,-3.71,-3.75,0,*57
1494194806.39,64014,15.81,72862.0,-2.45,-3.87,-3.83,0,*50
1494194807.63,64015,15.81,72858.5,-2.45,-3.71,-3.71,0,*55
1494194808.85,64016,15.75,72858.3,-2.45,-3.71,-3.75,0,*52
1494194810.08,64017,15.75,72858.3,-2.45,-3.71,-3.71,0,*57
1494194811.33,64018,15.81,72858.8,-2.45,-3.59,-3.63,0,*51
1494194812.57,64019,15.75,72858.8,-2.45,-3.59,-3.51,0,*51
1494194813.81,64020,15.81,72858.0,-2.45,-3.51,-3.51,0,*53
1494194815.06,64021,15.81,72858.3,-2.45,-3.51,-3.59,0,*5A
1494194816.3,64022,15.75,72856.0,-2.45,-3.51,-3.47,0,*56
1494194817.54,64023,15.75,72858.0,-2.45,-3.59,-3.59,0,*50
1494194818.8,64024,15.75,72856.3,-2.43,-3.59,-3.59,0,*51
1494194820.04,64025,15.81,72858.5,-2.43,-3.59,-3.51,0,*58
1494194821.29,64026,15.75,72856.0,-2.43,-3.51,-3.51,0,*53
1494194822.54,64027,15.75,72856.0,-2.43,-3.47,-3.51,0,*55
1494194823.76,64028,15.75,72856.5,-2.43,-3.47,-3.39,0,*54
1494194825.01,64029,15.75,72858.3,-2.43,-3.59,-3.59,0,*5C
1494194826.26,64030,15.75,72856.8,-2.43,-3.63,-3.63,0,*54
1494194827.51,64031,15.75,72856.0,-2.43,-3.51,-3.51,0,*55
1494194828.75,64032,15.81,72862.3,-2.43,-3.51,-3.51,0,*56
1494194830.0,64033,15.75,72852.5,-2.43,-3.59,-3.63,0,*5E
1494194831.24,64034,15.75,72856.8,-2.43,-3.59,-3.63,0,*59
1494194832.48,64035,15.75,72854.3,-2.45,-3.71,-3.63,0,*54
1494194833.72,64036,15.75,72856.8,-2.43,-3.71,-3.63,0,*51
1494194834.92,64037,15.75,72856.5,-2.43,-3.07,-3.19,0,*5C
1494194836.19,64038,15.75,72858.3,-2.41,-3.67,-3.59,0,*53
1494194837.46,64039,15.75,72858.3,-2.41,-3.59,-3.59,0,*5F
1494194838.71,64040,15.81,72858.5,-2.39,-3.71,-3.67,0,*59
1494194839.94,64041,15.75,72854.8,-2.41,-3.79,-3.79,0,*50
1494194841.2,64042,15.75,72852.5,-2.41,-3.71,-3.71,0,*53
1494194842.41,64043,15.81,72858.5,-2.43,-3.75,-3.75,0,*50
1494194843.68,64044,15.75,72856.8,-2.41,-3.71,-3.67,0,*52
1494194844.92,64045,15.81,72858.8,-2.41,-3.79,-3.71,0,*5C
1494194846.15,64046,15.81,72858.0,-2.43,-3.75,-3.71,0,*51
1494194847.37,64047,15.81,72858.5,-2.41,-3.15,-3.15,0,*56
1494194848.64,64048,15.75,72856.3,-2.41,-3.59,-3.55,0,*55
1494194849.89,64049,15.75,72856.3,-2.39,-3.59,-3.59,0,*57
1494194851.16,64050,15.75,72856.8,-2.41,-3.55,-3.59,0,*5C
1494194852.43,64051,15.81,72860.8,-2.41,-3.47,-3.47,0,*51
1494194853.7,64052,15.75,72856.5,-2.37,-3.63,-3.67,0,*57
1494194854.97,64053,15.75,72852.0,-2.41,-3.67,-3.71,0,*54
1494194856.23,64054,15.75,72852.5,-2.41,-3.59,-3.55,0,*58
1494194857.45,64055,15.75,72854.3,-2.41,-3.23,-3.19,0,*5C
1494194858.72,64056,15.75,72858.0,-2.41,-3.47,-3.47,0,*56
1494194859.94,64057,15.75,72858.0,-2.39,-3.43,-3.35,0,*59
1494194861.17,64058,15.75,72856.0,-2.39,-3.79,-3.71,0,*5F
1494194862.4,64059,15.75,72854.8,-2.41,-3.91,-3.83,0,*5A
1494194863.63,64060,15.75,72850.8,-2.39,-3.71,-3.79,0,*54
1494194864.89,64061,15.81,72856.3,-2.41,-3.67,-3.67,0,*52
1494194866.16,64062,15.75,72854.0,-2.41,-3.71,-3.59,0,*5B
1494194867.41,64063,15.75,72854.3,-2.39,-3.59,-3.55,0,*53
1494194868.68,64064,15.75,72854.3,-2.41,-3.59,-3.55,0,*5B
1494194869.92,64065,15.75,72852.0,-2.39,-3.55,-3.47,0,*5A
1494194871.17,64066,15.75,72852.8,-2.39,-3.59,-3.55,0,*56
1494194872.4,64067,15.75,72854.8,-2.41,-3.79,-3.79,0,*54
1494194873.64,64068,15.75,72854.5,-2.41,-3.91,-3.91,0,*5B
1494194874.85,64069,15.75,72852.8,-2.39,-3.91,-3.91,0,*55
1494194876.08,64070,15.75,72854.0,-2.41,-3.91,-3.91,0,*52
1494194877.31,64071,15.75,72852.5,-2.41,-3.95,-3.91,0,*57
1494194878.54,64072,15.81,72856.8,-2.41,-3.95,-3.91,0,*54
1494194879.74,64073,15.75,72852.0,-2.39,-4.05,-4.05,0,*5E
1494194880.97,64074,15.75,72854.3,-2.41,-4.13,-4.09,0,*5D
1494194882.19,64075,15.75,72854.3,-2.41,-4.05,-3.95,0,*59
1494194883.41,64076,15.75,72850.0,-2.41,-4.05,-4.05,0,*54
1494194884.63,64077,15.81,72854.3,-2.41,-4.05,-3.95,0,*5B
1494194885.86,64078,15.75,72852.8,-2.43,-4.09,-4.01,0,*50
1494194887.08,64079,15.81,72854.5,-2.43,-4.09,-4.01,0,*51
1494194888.31,64080,15.75,72850.3,-2.45,-4.01,-4.09,0,*51
1494194889.51,64081,15.75,72850.8,-2.43,-4.13,-4.13,0,*5E
1494194890.71,64082,15.75,72848.0,-2.43,-4.29,-4.29,0,*5D
1494194891.9,64083,15.75,72850.3,-2.45,-4.37,-4.25,0,*59
1494194893.11,64084,15.75,72850.8,-2.43,-4.29,-4.25,0,*57
1494194894.36,64085,15.75,72850.3,-2.45,-4.01,-4.01,0,*5C
1494194895.55,64086,15.75,72846.8,-2.45,-4.09,-4.09,0,*5F
1494194896.8,64087,15.81,72852.3,-2.45,-4.01,-4.01,0,*5E
1494194898.0,64088,15.75,72846.3,-2.45,-3.87,-3.95,0,*52
1494194899.22,64089,15.75,72850.0,-2.49,-4.01,-4.05,0,*58
1494194900.47,64090,15.75,72850.5,-2.45,-4.01,-4.01,0,*58
1494194901.67,64091,15.75,72852.0,-2.49,-4.29,-4.29,0,*55
1494194902.86,64092,15.75,72850.3,-2.49,-4.29,-4.29,0,*56
1494194904.09,64093,15.75,72850.3,-2.51,-4.21,-4.17,0,*5B
1494194905.28,64094,15.81,72848.8,-2.49,-4.17,-4.05,0,*53
1494194906.47,64095,15.75,72848.8,-2.49,-4.13,-4.05,0,*56
1494194907.69,64096,15.75,72846.5,-2.51,-4.05,-4.05,0,*5B